| time (UTC) | temp F | wind direction | speed MPH | gust MPH | rain 1hr in | rain 24hr in | rain mn in | humidity % | barometer mb |
| 20260507020030 | 75 | 254 | 0.0 | 0.0 | 0.00 | 0.00 | 0.00 | 58 | 1016.8 |
| 20260507014529 | 75 | 269 | 0.0 | 0.0 | 0.00 | 0.00 | 0.00 | 58 | 1016.8 |
| 20260507013034 | 76 | 251 | 0.0 | 0.0 | 0.00 | 0.00 | 0.00 | 57 | 1016.9 |
| 20260507011532 | 76 | 244 | 0.0 | 0.0 | 0.00 | 0.00 | 0.00 | 56 | 1016.9 |
| 20260507010038 | 76 | 265 | 0.0 | 0.0 | 0.00 | 0.00 | 0.00 | 56 | 1017.0 |
| 20260507004525 | 77 | 272 | 0.0 | 0.0 | 0.00 | 0.00 | 0.00 | 56 | 1016.9 |
| 20260507003027 | 77 | 281 | 0.0 | 0.0 | 0.00 | 0.00 | 0.00 | 55 | 1016.9 |
| 20260507001528 | 77 | 255 | 0.0 | 0.0 | 0.00 | 0.00 | 0.00 | 54 | 1016.9 |
| 20260507000027 | 77 | 265 | 0.0 | 0.0 | 0.00 | 0.00 | 0.00 | 55 | 1017.0 |
| 20260506234523 | 77 | 253 | 0.0 | 0.0 | 0.00 | 0.00 | 0.00 | 55 | 1017.0 |
| 20260506233020 | 77 | 9 | 0.0 | 0.0 | 0.00 | 0.00 | 0.00 | 53 | 1017.1 |
| 20260506231523 | 77 | 326 | 0.0 | 0.0 | 0.00 | 0.00 | 0.00 | 55 | 1017.3 |
| 20260506230015 | 76 | 232 | 0.0 | 0.0 | 0.00 | 0.00 | 0.00 | 54 | 1017.4 |
| 20260506224516 | 77 | 336 | 0.0 | 0.0 | 0.00 | 0.00 | 0.00 | 55 | 1017.6 |
| 20260506223015 | 76 | 26 | 0.0 | 0.0 | 0.00 | 0.00 | 0.00 | 54 | 1017.9 |
| 20260506221508 | 76 | 325 | 0.0 | 0.0 | 0.00 | 0.00 | 0.00 | 54 | 1018.2 |
| 20260506220014 | 76 | 5 | 0.0 | 0.0 | 0.00 | 0.00 | 0.00 | 54 | 1018.4 |
| 20260506214509 | 76 | 235 | 0.0 | 0.0 | 0.00 | 0.00 | 0.00 | 55 | 1018.6 |
| 20260506213002 | 75 | 355 | 0.0 | 0.0 | 0.00 | 0.00 | 0.00 | 55 | 1018.7 |
| 20260506211600 | 75 | 270 | 0.0 | 0.0 | 0.00 | 0.00 | 0.00 | 56 | 1018.8 |
| 20260506210056 | 73 | 36 | 0.0 | 0.0 | 0.00 | 0.00 | 0.00 | 59 | 1019.0 |
| 20260506204559 | 72 | 323 | 0.0 | 0.0 | 0.00 | 0.01 | 0.00 | 61 | 1019.2 |
| 20260506203053 | 72 | 71 | 0.0 | 0.0 | 0.00 | 0.01 | 0.00 | 59 | 1019.3 |
| 20260506201556 | 72 | 238 | 0.0 | 0.0 | 0.00 | 0.01 | 0.00 | 61 | 1019.6 |
| 20260506200107 | 71 | 55 | 0.0 | 0.0 | 0.00 | 0.01 | 0.00 | 60 | 1019.7 |
| 20260506194558 | 72 | 355 | 0.0 | 0.0 | 0.00 | 0.01 | 0.00 | 60 | 1019.9 |
| 20260506193047 | 72 | 355 | 0.0 | 0.0 | 0.00 | 0.01 | 0.00 | 62 | 1020.0 |
| 20260506191543 | 71 | 319 | 0.0 | 0.0 | 0.00 | 0.01 | 0.00 | 64 | 1020.1 |
| 20260506190140 | 71 | 296 | 0.0 | 0.0 | 0.00 | 0.01 | 0.00 | 65 | 1020.3 |
| 20260506184539 | 70 | 325 | 0.0 | 0.0 | 0.00 | 0.01 | 0.00 | 67 | 1020.4 |
| 20260506183043 | 70 | 239 | 0.0 | 0.0 | 0.00 | 0.01 | 0.00 | 67 | 1020.6 |
| 20260506181532 | 69 | 269 | 0.0 | 0.0 | 0.00 | 0.01 | 0.00 | 68 | 1020.6 |
| 20260506180027 | 68 | 348 | 0.0 | 0.0 | 0.00 | 0.01 | 0.00 | 70 | 1020.7 |
| 20260506174523 | 67 | 248 | 0.0 | 0.0 | 0.00 | 0.01 | 0.00 | 72 | 1020.7 |
| 20260506173021 | 67 | 274 | 0.0 | 0.0 | 0.00 | 0.01 | 0.00 | 73 | 1020.7 |
| 20260506171527 | 65 | 344 | 0.0 | 0.0 | 0.00 | 0.01 | 0.00 | 75 | 1020.7 |
| 20260506170011 | 63 | 335 | 0.0 | 0.0 | 0.00 | 0.01 | 0.00 | 80 | 1020.7 |
| 20260506164506 | 62 | 261 | 0.0 | 0.0 | 0.00 | 0.01 | 0.00 | 82 | 1020.7 |
| 20260506163004 | 60 | 259 | 0.0 | 0.0 | 0.00 | 0.01 | 0.00 | 82 | 1020.7 |
| 20260506161606 | 60 | 255 | 0.0 | 0.0 | 0.00 | 0.01 | 0.00 | 83 | 1020.8 |
| 20260506160058 | 59 | 267 | 0.0 | 0.0 | 0.00 | 0.01 | 0.00 | 83 | 1020.8 |
| 20260506154550 | 59 | 268 | 0.0 | 0.0 | 0.00 | 0.01 | 0.00 | 85 | 1020.9 |
| 20260506153047 | 58 | 239 | 0.0 | 0.0 | 0.00 | 0.01 | 0.00 | 86 | 1020.9 |
| 20260506151600 | 57 | 260 | 0.0 | 0.0 | 0.00 | 0.01 | 0.00 | 87 | 1020.8 |
| 20260506150040 | 57 | 271 | 0.0 | 0.0 | 0.00 | 0.01 | 0.00 | 88 | 1020.9 |
| 20260506144535 | 57 | 244 | 0.0 | 0.0 | 0.00 | 0.01 | 0.00 | 89 | 1020.8 |
| 20260506143043 | 57 | 257 | 0.0 | 0.0 | 0.00 | 0.01 | 0.00 | 89 | 1020.8 |
| 20260506141528 | 56 | 248 | 0.0 | 0.0 | 0.00 | 0.01 | 0.00 | 90 | 1020.6 |
| 20260506140032 | 56 | 244 | 0.0 | 0.0 | 0.00 | 0.01 | 0.00 | 90 | 1020.4 |
| 20260506134521 | 56 | 244 | 0.0 | 0.0 | 0.00 | 0.01 | 0.00 | 90 | 1020.3 |
| 20260506133023 | 56 | 244 | 0.0 | 0.0 | 0.00 | 0.01 | 0.00 | 90 | 1020.2 |
| 20260506131522 | 56 | 220 | 0.0 | 0.0 | 0.00 | 0.01 | 0.00 | 90 | 1020.1 |
| 20260506130016 | 56 | 220 | 0.0 | 0.0 | 0.00 | 0.01 | 0.00 | 90 | 1020.1 |
| 20260506124515 | 56 | 220 | 0.0 | 0.0 | 0.00 | 0.01 | 0.00 | 90 | 1020.0 |
| 20260506123016 | 56 | 199 | 0.0 | 0.0 | 0.00 | 0.01 | 0.00 | 90 | 1019.9 |
| 20260506121512 | 56 | 199 | 0.0 | 0.0 | 0.00 | 0.01 | 0.00 | 91 | 1019.8 |
| 20260506120011 | 56 | 199 | 0.0 | 0.0 | 0.00 | 0.01 | 0.00 | 91 | 1019.6 |
| 20260506114512 | 56 | 187 | 0.0 | 0.0 | 0.00 | 0.01 | 0.00 | 91 | 1019.6 |
| 20260506113010 | 56 | 187 | 0.0 | 0.0 | 0.00 | 0.01 | 0.00 | 90 | 1019.7 |
| 20260506111509 | 56 | 187 | 0.0 | 0.0 | 0.00 | 0.01 | 0.00 | 90 | 1019.7 |
| 20260506110007 | 56 | 187 | 0.0 | 0.0 | 0.00 | 0.01 | 0.00 | 90 | 1019.4 |
| 20260506104504 | 56 | 252 | 0.0 | 0.0 | 0.00 | 0.03 | 0.00 | 90 | 1019.3 |
| 20260506103010 | 56 | 252 | 0.0 | 0.0 | 0.00 | 0.03 | 0.00 | 90 | 1019.2 |
| 20260506101504 | 56 | 264 | 0.0 | 0.0 | 0.00 | 0.03 | 0.00 | 90 | 1019.1 |
| 20260506100003 | 56 | 264 | 0.0 | 0.0 | 0.00 | 0.10 | 0.00 | 90 | 1019.0 |
| 20260506094505 | 56 | 260 | 0.0 | 0.0 | 0.00 | 0.10 | 0.00 | 90 | 1018.9 |
| 20260506093002 | 56 | 260 | 0.0 | 0.0 | 0.00 | 0.10 | 0.00 | 90 | 1019.0 |
| 20260506091503 | 56 | 260 | 0.0 | 0.0 | 0.00 | 0.10 | 0.00 | 90 | 1018.9 |
| 20260506090000 | 56 | 260 | 0.0 | 0.0 | 0.00 | 0.13 | 0.00 | 90 | 1019.0 |
| 20260506084605 | 56 | 260 | 0.0 | 0.0 | 0.00 | 0.13 | 0.00 | 90 | 1019.1 |
| 20260506083100 | 56 | 260 | 0.0 | 0.0 | 0.00 | 0.13 | 0.00 | 90 | 1019.2 |
| 20260506081559 | 56 | 260 | 0.0 | 0.0 | 0.00 | 0.13 | 0.00 | 90 | 1019.3 |
| 20260506073051 | 55 | 264 | 0.0 | 0.0 | 0.00 | 0.14 | 0.00 | 91 | 1018.7 |
| 20260506071604 | 55 | 274 | 0.0 | 0.0 | 0.00 | 0.14 | 0.00 | 90 | 1018.6 |
| 20260506061542 | 56 | 252 | 0.0 | 0.0 | 0.00 | 0.17 | 0.14 | 87 | 1018.1 |
| 20260506044534 | 60 | 252 | 0.0 | 0.0 | 0.00 | 0.18 | 0.14 | 82 | 1017.2 |
| 20260506043031 | 61 | 284 | 0.0 | 0.0 | 0.00 | 0.18 | 0.14 | 83 | 1017.0 |
| 20260506041537 | 61 | 270 | 0.0 | 0.0 | 0.00 | 0.18 | 0.14 | 85 | 1016.8 |
| 20260506040030 | 61 | 251 | 0.0 | 0.0 | 0.00 | 0.18 | 0.14 | 85 | 1016.8 |
| 20260506034527 | 61 | 239 | 0.0 | 0.0 | 0.00 | 0.18 | 0.14 | 85 | 1016.5 |
| 20260506033030 | 61 | 245 | 0.0 | 0.0 | 0.00 | 0.18 | 0.14 | 83 | 1016.3 |
| 20260506031527 | 62 | 225 | 0.0 | 0.0 | 0.00 | 0.18 | 0.14 | 83 | 1016.2 |
| 20260506030025 | 62 | 225 | 0.0 | 0.0 | 0.00 | 0.18 | 0.14 | 81 | 1016.1 |
| 20260506024523 | 63 | 228 | 0.0 | 0.0 | 0.00 | 0.18 | 0.14 | 81 | 1015.8 |
| 20260506023022 | 63 | 228 | 0.0 | 0.0 | 0.00 | 0.18 | 0.14 | 79 | 1015.7 |
| 20260506021522 | 63 | 240 | 0.0 | 0.0 | 0.00 | 0.18 | 0.14 | 78 | 1015.6 |